User: anonymous   Login
Location: Brno
(49.2000°N, 16.6330°E)
Time: 21:27:11
(UTC+01:00)
Language:

CARTOSAT-1 - Orbit

View from above orbital plane
View from above orbital plane
View from above satellite
View from above satellite

Ground track
Ground track

The orbit data is extracted from the following two-line orbital elements,

1 28649U 05017A   15026.72988321 -.00000200  00000-0 -18021-4 0   290
2 28649 097.8095 101.2090 0001352 036.1014 323.9541 14.83468777526632
Epoch (UTC): 26 January 2015 17:31:01
Eccentricity: 0.0001352
inclination: 97.8095°
perigee height: 617 km
apogee height: 619 km
right ascension of ascending node: 101.2090°
argument of perigee: 36.1014°
revolutions per day: 14.83468777
mean anomaly at epoch: 323.9541°
orbit number at epoch: 52663

The dashed part of the orbit path shows where the satellite is in the earth's shadow,  

DLR